Flag for Russia Weather past 2 weeks in Penza, Russia

Now
52 °F

Mostly cloudy.


Feels Like: 51 °F
Forecast: 45 / 63 °F
Wind: 3 mph from North

Location: Saratov / Tsentralny

Current Time: Aug 31, 2015 at 8:08:23 AM

Latest Report: Aug 31, 2015 at 7:30 AM


Visibility: N/A

Pressure: 29.92 "Hg

Humidity: 77%

Dew point: 45 °F

Location of PenzaLocation

Historic Weather in Penza — Graph

°F

Penza temperature yesterday

Maximum temperature yesterday: 72 °F (at 2:00 PM)
Minimum temperature yesterday: 57 °F (at 6:00 AM)
Average temperature yesterday: 64 °F

Past Weeks' High & Low Weather Summary

 TemperatureHumidityPressure
High84 °F (Aug 28, 2:00 PM)100% (Aug 16, 9:00 PM)30.24 "Hg (Aug 16, 9:00 PM)
Low-8 °F (Aug 29, 11:30 PM)20% (Aug 28, 2:00 PM)29.71 "Hg (Aug 17, 1:00 AM)
Average65 °F55%30.01 "Hg
* Reported Aug 16 7:00 AM — Aug 31 7:00 AM, Penza, Weather by CustomWeather, © 2015

Note: Actual official high and low records may vary slightly from our data, if they occured in-between our weather recording intervals... More about our weather records

Advertising

Penza weather history for previous 24 hours

 ConditionsComfort  
Time TempWeatherWind HumidityBarometerVisibility
7:00 AM
Mon, Aug 31
52 °FMostly cloudy.3 mph77%29.92 "HgN/A
6:30 AM52 °FMostly cloudy.3 mph82%29.92 "HgN/A
6:00 AM52 °FMostly cloudy.3 mph82%29.92 "HgN/A
5:30 AM52 °FMostly cloudy.6 mph77%29.92 "HgN/A
5:00 AM52 °FMostly cloudy.8 mph77%29.92 "HgN/A
4:30 AM52 °FPassing clouds.8 mph77%29.92 "HgN/A
4:00 AM52 °FPassing clouds.8 mph77%29.92 "HgN/A
3:30 AM52 °FPassing clouds.10 mph77%29.92 "HgN/A
3:00 AM52 °FPassing clouds.13 mph77%29.92 "HgN/A
2:30 AM52 °FMostly cloudy.15 mph77%29.92 "HgN/A
2:00 AM52 °FMostly cloudy.8 mph77%29.92 "HgN/A
1:30 AM52 °FPassing clouds.10 mph82%29.89 "HgN/A
1:00 AM52 °FPassing clouds.13 mph82%29.89 "HgN/A
12:30 AM55 °FPassing clouds.13 mph77%29.86 "HgN/A
12:00 AM55 °FPassing clouds.15 mph77%29.86 "HgN/A
11:30 PM
Sun, Aug 30
57 °FPassing clouds.15 mph77%29.86 "HgN/A
10:30 PM59 °FPassing clouds.17 mph68%29.83 "HgN/A
10:00 PM59 °FPassing clouds.22 mph68%29.83 "HgN/A
9:30 PM61 °FPassing clouds.20 mph59%29.83 "HgN/A
9:00 PM61 °FPartly cloudy.15 mph59%29.83 "HgN/A
8:30 PM63 °FPartly cloudy.15 mph56%29.83 "HgN/A
8:00 PM63 °FPartly cloudy.15 mph56%29.83 "HgN/A
7:30 PM64 °FBroken clouds.17 mph43%29.83 "HgN/A
7:00 PM64 °FBroken clouds.20 mph43%29.83 "HgN/A
6:30 PM66 °FScattered clouds.20 mph43%29.80 "HgN/A
6:00 PM66 °FScattered clouds.20 mph43%29.80 "HgN/A
5:30 PM68 °FBroken clouds.17 mph43%29.80 "HgN/A
5:00 PM68 °FBroken clouds.20 mph43%29.80 "HgN/A
4:30 PM66 °FBroken clouds.20 mph46%29.80 "HgN/A
4:00 PM66 °FBroken clouds.17 mph46%29.80 "HgN/A
3:30 PM72 °FPartly sunny.22 mph36%29.80 "HgN/A
3:00 PM72 °FPartly sunny.22 mph36%29.80 "HgN/A
2:30 PM72 °FPartly sunny.20 mph38%29.80 "HgN/A
2:00 PM72 °FPartly sunny.20 mph38%29.80 "HgN/A
1:30 PM70 °FPartly sunny.20 mph43%29.80 "HgN/A
1:00 PM70 °FPartly sunny.20 mph43%29.80 "HgN/A
12:30 PM68 °FPartly sunny.20 mph49%29.80 "HgN/A
12:00 PM68 °FPartly sunny.20 mph49%29.80 "HgN/A
11:30 AM68 °FPartly sunny.20 mph53%29.80 "HgN/A
11:00 AM68 °FScattered clouds.17 mph53%29.80 "HgN/A
10:30 AM66 °FScattered clouds.15 mph60%29.80 "HgN/A
10:00 AM66 °FScattered clouds.13 mph60%29.80 "HgN/A
9:30 AM63 °FScattered clouds.10 mph73%29.80 "HgN/A
9:00 AM63 °FPassing clouds.8 mph73%29.80 "HgN/A
8:30 AM61 °FPassing clouds.8 mph83%29.77 "HgN/A
8:00 AM61 °FPassing clouds.8 mph83%29.77 "HgN/A
Weather by CustomWeather, © 2015

See weather overviewHow to use our weather pages